sat.trackr.live / text

‹ back to catalog

STARLINK-6127

NORAD 57135 · 2023-090AL

PAYLOAD ACTIVE UNKNOWN

§ Identity

Operator
Country
US
Launch date
2023-06-23
Launch site
AFETR
Launch vehicle
Mass (kg)
RCS (m²)

Purposes: comms

External: N2YO · Heavens-Above · Gunter

§ Orbital elements

Epoch: 2026-05-25T04:15:40.827168Z

Period
94.27 min
Inclination
43.0003°
Eccentricity
0.0001486
Mean motion
15.27577994 rev/d
Perigee alt
482.0 km
Apogee alt
484.1 km
Semi-major
6,861.2 km
B*
-7.5082e-5
RAAN
191.1793°
Arg perigee
283.9873°
Mean anomaly
76.0813°
Rev number
16,205

§ Raw data

STARLINK-61271 57135U 23090AL  26145.17755587 -.00002327  00000+0 -75082-4 0  99992 57135  43.0003 191.1793 0001486 283.9873  76.0813 15.27577994162058

JSON: /api/v1/satellites/57135 · /tle

For live sub-satellite position, see the globe view (requires WebGL).

§ Visibility from observer

Set your observer location to see the next 7 days of passes ≥ 10°. The values pass through the URL so the page stays shareable.

No JS? Fill the form by hand. The geolocation button needs JavaScript.